,

(GMT )
Resia Pass

Weather History for LIVE - January, 2014

Change the Weather History Date:

Saturday, January 4, 2014

  Actual Average Record
Temperature  
Mean Temperature 28 °F -  
Max Temperature 30 °F 33 °F 41 °F (1999)
Min Temperature 26 °F 18 °F 5 °F (2002)
Degree Days  
Heating Degree Days 37    
Moisture  
Dew Point 25 °F    
Average Humidity 89    
Maximum Humidity 100    
Minimum Humidity 86    
Precipitation  
Precipitation 0.00 in - - ()
Sea Level Pressure  
Sea Level Pressure 29.81 in    
Wind  
Wind Speed 5 mph ()    
Max Wind Speed 13 mph    
Max Gust Speed -    
Visibility 0.5 miles    
Events Fog , Snow    
Averages and records for this station are not official NWS values.
T = Trace of Precipitation, MM = Missing Value Source: Averaged Metar Reports

Daily Weather History Graph

Daily Weather History Graph

Search for Another Location

Airport or City:

Trip Planner

Search our weather history database for the weather conditions in past years. The results will help you decide how hot, cold, wet, or windy it might be!

Date:

Astronomy

Jan. 04, 2014 Rise Set
Actual Time 8:03 AM CET 4:43 PM CET
Civil Twilight 7:28 AM CET 5:18 PM CET
Nautical Twilight 6:49 AM CET 5:56 PM CET
Astronomical Twilight 6:12 AM CET 6:33 PM CET
Moon 9:43 AM CET (1/4) 8:59 PM CET (1/4)
Length of Visible Light 9h 49m
Length of Day
8h 40m
Waxing Crescent, 13% of the Moon is Illuminated
Jan 4
Waxing Crescent
Jan 8
First Quarter
Jan 16
Full
Jan 24
Last Quarter
Jan 30
New

Hourly Weather History & Observations

Time (CET) Temp. Windchill Dew Point Humidity Pressure Visibility Wind Dir Wind Speed Gust Speed Precip Events Conditions
12:55 AM 26.6 °F - 23.0 °F 86% 30.04 in - Variable 1.2 mph - N/A   Clear
1:55 AM 26.6 °F - 24.8 °F 93% 30.04 in - Calm Calm - N/A   Clear
2:55 AM 28.4 °F 24.6 °F 24.8 °F 86% 30.04 in - NNE 3.5 mph - N/A   Clear
3:55 AM 28.4 °F 24.6 °F 24.8 °F 86% 30.04 in - NNE 3.5 mph - N/A   Clear
7:55 AM 30.2 °F 21.3 °F 28.4 °F 93% 29.98 in 1.9 mi South 10.4 mph - N/A Snow Light Snow
8:55 AM 30.2 °F 22.6 °F 28.4 °F 93% 29.98 in 1.2 mi South 8.1 mph - N/A Snow Light Snow
9:55 AM 30.2 °F 22.6 °F 26.6 °F 86% 29.92 in 0.4 mi SSE 8.1 mph - N/A Fog , Snow Snow
10:55 AM 28.4 °F 18.0 °F 26.6 °F 93% 29.89 in 0.4 mi South 12.7 mph - N/A Fog , Snow Snow
11:55 AM 26.6 °F 16.8 °F 26.6 °F 100% 29.86 in 0.1 mi South 10.4 mph - N/A Fog , Snow Snow
12:55 PM 28.4 °F 18.5 °F 26.6 °F 93% 29.80 in 0.1 mi SSE 11.5 mph - N/A Fog , Snow Snow
1:55 PM 28.4 °F 18.0 °F 24.8 °F 86% 29.77 in 0.1 mi SSE 12.7 mph - N/A Fog , Snow Snow
2:55 PM 28.4 °F 19.7 °F 24.8 °F 86% 29.74 in 0.1 mi SSE 9.2 mph - N/A Fog , Snow Snow
3:55 PM 28.4 °F 20.4 °F 24.8 °F 86% 29.74 in 0.1 mi SSW 8.1 mph - N/A Fog , Snow Snow
4:55 PM 26.6 °F 18.2 °F 26.6 °F 100% 29.68 in 0.1 mi SSW 8.1 mph - N/A Fog , Snow Snow
5:55 PM 28.4 °F 21.2 °F 24.8 °F 86% 29.68 in 0.1 mi SSW 6.9 mph - N/A   Unknown
6:55 PM 28.4 °F 20.4 °F 24.8 °F 86% 29.65 in 0.1 mi SSW 8.1 mph - N/A Fog , Snow Snow
7:55 PM 26.6 °F 20.0 °F 24.8 °F 93% 29.65 in 0.1 mi SSW 5.8 mph - N/A Fog , Snow Snow
8:55 PM 28.4 °F 23.3 °F 24.8 °F 86% 29.65 in 0.1 mi SSW 4.6 mph - N/A Fog , Snow Snow
9:55 PM 28.4 °F 22.2 °F 24.8 °F 86% 29.65 in 1.2 mi WSW 5.8 mph - N/A Snow Light Snow
10:55 PM 28.4 °F 22.2 °F 24.8 °F 86% 29.65 in 1.2 mi SW 5.8 mph - N/A   Overcast
11:55 PM 28.4 °F 19.7 °F 24.8 °F 86% 29.62 in 1.9 mi South 9.2 mph - N/A   Overcast